Weather History for CYXH - March, 2013

Change the Weather History Date:

Saturday, March 30, 2013

  Actual Average Record
Temperature  
Mean Temperature 16 °F -  
Max Temperature 55 °F 55 °F 77 °F (2004)
Min Temperature -23 °F 31 °F -24 °F (2015)
Degree Days  
Heating Degree Days 49    
Moisture  
Dew Point 21 °F    
Average Humidity 63    
Maximum Humidity 93    
Minimum Humidity 26    
Precipitation  
Precipitation 0.00 in 0.03 in - ()
Sea Level Pressure  
Sea Level Pressure 30.18 in    
Wind  
Wind Speed 5 mph ()    
Max Wind Speed 15 mph    
Max Gust Speed 20 mph    
Visibility 11.1 miles    
Events      
Averages and records for this station are not official NWS values.
T = Trace of Precipitation, MM = Missing Value Source: Averaged Metar Reports

Daily Weather History Graph

Daily Weather History Graph

Search for Another Location

Airport or City:

Trip Planner

Search our weather history database for the weather conditions in past years. The results will help you decide how hot, cold, wet, or windy it might be!

Date:

Astronomy

Mar. 30, 2013 Rise Set
Actual Time 7:03 AM MDT 7:52 PM MDT
Civil Twilight 6:30 AM MDT 8:25 PM MDT
Nautical Twilight 5:51 AM MDT 9:04 PM MDT
Astronomical Twilight 5:09 AM MDT 9:45 PM MDT
Moon No Moon Rise 8:38 AM MDT (3/30)
Length of Visible Light 13h 54m
Length of Day
12h 49m
Waning Gibbous, 86% of the Moon is Illuminated
Mar 30
Waning Gibbous
Apr 2
Last Quarter
Apr 10
New
Apr 18
First Quarter
Apr 25
Full

Hourly Weather History & Observations

Time (MDT) Temp. Windchill Dew Point Humidity Pressure Visibility Wind Dir Wind Speed Gust Speed Precip Events Conditions
12:00 AM -19 °F - -24 °F 64% 30.35 in - NNW 5.8 mph - -  
12:00 AM 32.0 °F 28.7 °F 26.6 °F 80% 30.12 in 6.0 mi SSW 3.5 mph - N/A   Haze
1:00 AM 30.2 °F - 26.6 °F 86% 30.13 in 9.0 mi Variable 2.3 mph - N/A   Mostly Cloudy
2:00 AM 28.4 °F - 26.6 °F 93% 30.12 in 9.0 mi Variable 2.3 mph - N/A   Partly Cloudy
3:00 AM 32.0 °F - 28.4 °F 87% 30.12 in 9.0 mi Calm Calm - N/A   Overcast
4:00 AM 32.0 °F 28.7 °F 30.2 °F 93% 30.12 in 9.0 mi South 3.5 mph - N/A   Overcast
4:41 AM 32.0 °F 21.6 °F 28.4 °F 87% 30.13 in 9.0 mi Variable 15.0 mph - N/A   Mostly Cloudy
5:00 AM 33.8 °F 27.0 °F 28.4 °F 81% 30.12 in 9.0 mi Variable 8.1 mph - N/A   Scattered Clouds
6:00 AM -20 °F - -25 °F 67% 30.36 in - South 1.2 mph - -  
6:00 AM 30.2 °F 24.3 °F 28.4 °F 93% 30.15 in 9.0 mi ENE 5.8 mph - N/A   Overcast
7:00 AM 32.0 °F 27.5 °F 28.4 °F 87% 30.17 in 15.0 mi South 4.6 mph - N/A   Overcast
8:00 AM 32.0 °F 27.5 °F 30.2 °F 93% 30.21 in 15.0 mi WSW 4.6 mph - N/A   Mostly Cloudy
9:00 AM 37.4 °F 31.4 °F 32.0 °F 81% 30.23 in 15.0 mi West 8.1 mph - N/A   Mostly Cloudy
10:00 AM 42.8 °F 40.1 °F 32.0 °F 66% 30.23 in 15.0 mi West 4.6 mph - N/A   Mostly Cloudy
11:00 AM 48.2 °F - 32.0 °F 54% 30.24 in 15.0 mi West 6.9 mph - N/A   Mostly Cloudy
12:00 PM -21 °F - -26 °F 66% 30.35 in - South 5.8 mph - -  
12:00 PM 50.0 °F - 32.0 °F 50% 30.24 in 30.0 mi WNW 12.7 mph - N/A   Overcast
1:00 PM 51.8 °F - 28.4 °F 41% 30.24 in 30.0 mi NW 8.1 mph 19.6 mph N/A   Overcast
2:00 PM 53.6 °F - 23.0 °F 30% 30.22 in 30.0 mi NNW 12.7 mph 18.4 mph N/A   Overcast
3:00 PM 55.4 °F - 21.2 °F 26% 30.20 in 30.0 mi WNW 10.4 mph - N/A   Overcast
4:00 PM 55.4 °F - 23.0 °F 29% 30.18 in 30.0 mi NNW 8.1 mph - N/A   Overcast
5:00 PM 55.4 °F - 23.0 °F 29% 30.16 in 30.0 mi WSW 3.5 mph - N/A   Overcast
6:00 PM 53.6 °F - 23.0 °F 30% 30.14 in 30.0 mi West 4.6 mph - N/A   Overcast
7:00 PM 51.8 °F - 19.4 °F 28% 30.13 in 30.0 mi NNE 6.9 mph - N/A   Overcast
8:00 PM 46.4 °F 41.1 °F 23.0 °F 40% 30.12 in 30.0 mi ENE 11.5 mph - N/A   Overcast
9:00 PM 41.0 °F 33.5 °F 28.4 °F 61% 30.11 in 15.0 mi East 13.8 mph - N/A   Mostly Cloudy
10:00 PM 39.2 °F 32.5 °F 26.6 °F 61% 30.11 in 9.0 mi East 10.4 mph - N/A   Overcast
11:00 PM 37.4 °F 30.3 °F 24.8 °F 60% 30.08 in 9.0 mi East 10.4 mph - N/A   Mostly Cloudy